This is the latest recevied weather packets stored in our database for station/object N3DXC. If no packets are shown the sender has not sent any weather packets the latest 10 day(s).
| Time | Temp. | Humidity | Pressure | Rain* | Wind** | Luminosity | Snow |
|---|---|---|---|---|---|---|---|
| 1777811996 | 2.78° C | 80% | 1016.3 hPa | 0 mm | - | - | - |
| 1777811696 | 2.78° C | 82% | 1016.3 hPa | 0 mm | - | - | - |
| 1777811396 | 2.22° C | 84% | 1016.3 hPa | 0 mm | - | - | - |
| 1777811097 | 2.22° C | 85% | 1016.3 hPa | 0 mm | - | - | - |
| 1777810796 | 2.22° C | 86% | 1016.2 hPa | 0 mm | - | - | - |
| 1777810496 | 1.67° C | 86% | 1016.3 hPa | 0 mm | - | - | - |
| 1777810196 | 1.67° C | 88% | 1016.9 hPa | 0 mm | - | - | - |
| 1777809896 | 1.67° C | 89% | 1016.2 hPa | 0 mm | - | - | - |
| 1777809596 | 1.67° C | 89% | 1013.9 hPa | 0 mm | - | - | - |
| 1777809296 | 1.11° C | 90% | 1016.2 hPa | 0 mm | - | - | - |
| 1777808996 | 0.56° C | 91% | 1016.2 hPa | 0 mm | - | - | - |
| 1777808696 | 0.56° C | 91% | 1016.1 hPa | 0 mm | - | - | - |
| 1777808396 | 0.56° C | 92% | 1016.2 hPa | 0 mm | - | - | - |
| 1777808096 | 0.56° C | 92% | 1016.1 hPa | 0 mm | - | - | - |
| 1777807796 | 0° C | 93% | 1016.1 hPa | 0 mm | - | - | - |
| 1777807496 | 0° C | 93% | 1016.1 hPa | 0 mm | - | - | - |
| 1777807197 | 0° C | 93% | 1016.1 hPa | 0 mm | - | - | - |
| 1777806900 | 0° C | 93% | 1016 hPa | 0 mm | - | - | - |
| 1777806597 | -0.56° C | 93% | 1015.9 hPa | 0 mm | - | - | - |
| 1777806296 | -0.56° C | 93% | 1017 hPa | 0 mm | - | - | - |
| 1777805998 | -0.56° C | 93% | 1015.6 hPa | 0 mm | - | - | - |
| 1777805696 | -0.56° C | 93% | 1015.8 hPa | 0 mm | - | - | - |
| 1777805398 | -0.56° C | 93% | 1015.7 hPa | 0 mm | - | - | - |
| 1777805096 | -1.11° C | 93% | 1015.7 hPa | 0 mm | - | - | - |
| 1777804797 | -1.11° C | 93% | 1015.6 hPa | 0 mm | - | - | - |
* Rain latest hour (hover to see other rain measurements)
** Current wind speed in m/s (hover to see current wind gust speed)